contact:dominique.lefevre@mio.osupytheas.fr, maurice.libes@osupytheas.fr, didier.mallarino@osupytheas.fr
Project:EMSO http://www.emso-fr.org/EMSO-France
Depth: 2436.0 m
Title:EMSO Ligure Ouest : Data MII capteur AQUADOPP
Date,Latitude,Longitude,X_East,Y_North,Z_Up,Amplitude_X,Amplitude_Y,Amplitude_Z,Batterie,SoundSpeed,Heading,Pitch,Roll,Pressure,TIS,Speed,Direction
, degrees North, degrees East, m.s-1, m.s-1,m.s-1, 1, 1, 1, Volt, m.s-1, degree, degree, degree, dbar, degree_C, m.s-1, degree
2021-04-14T00:04:03,42.805,6.029,-0.04,-0.05,-0.007,103.0,102.0,100.0,13.3,1505.2,324.2,-0.8,1.8,2469.166,13.28,0.064,218.7
2021-04-14T00:07:03,42.805,6.029,-0.031,-0.038,0.002,103.0,104.0,101.0,13.3,1505.2,323.4,-0.8,1.8,2469.114,13.28,0.049,219.2
2021-04-14T00:10:03,42.805,6.029,-0.06,-0.024,-0.03,103.0,102.0,101.0,13.4,1505.2,326.5,-0.8,1.8,2469.145,13.28,0.064,248.2
2021-04-14T00:13:03,42.805,6.029,-0.04,-0.039,-0.004,104.0,104.0,102.0,13.3,1505.2,327.4,-0.7,1.8,2469.167,13.28,0.055,225.7
2021-04-14T00:16:03,42.805,6.029,-0.032,-0.032,-0.023,104.0,103.0,102.0,13.4,1505.2,326.3,-0.8,1.8,2469.118,13.28,0.045,225.0
2021-04-14T00:19:03,42.805,6.029,-0.047,-0.023,-0.001,103.0,103.0,101.0,13.4,1505.2,325.0,-0.7,1.8,2469.158,13.28,0.052,243.9
2021-04-14T00:22:03,42.805,6.029,-0.024,-0.043,-0.016,104.0,103.0,101.0,13.4,1505.2,325.2,-0.8,1.8,2469.106,13.28,0.049,209.2
2021-04-14T00:25:03,42.805,6.029,-0.034,-0.023,0.013,103.0,104.0,100.0,13.3,1505.2,324.9,-0.7,1.8,2469.18,13.28,0.041,235.9
2021-04-14T00:28:03,42.805,6.029,-0.056,-0.044,-0.02,104.0,103.0,101.0,13.3,1505.2,327.6,-0.8,1.9,2469.139,13.28,0.071,231.8
2021-04-14T00:31:03,42.805,6.029,-0.049,-0.04,0.002,103.0,104.0,102.0,13.4,1505.2,324.1,-0.8,1.8,2469.126,13.28,0.063,230.8
2021-04-14T00:34:03,42.805,6.029,-0.047,-0.032,-0.006,104.0,102.0,102.0,13.4,1505.2,329.0,-0.7,1.8,2469.142,13.28,0.056,235.8
2021-04-14T00:37:03,42.805,6.029,-0.039,-0.059,-0.031,105.0,103.0,101.0,13.3,1505.2,324.1,-0.7,1.8,2469.128,13.28,0.07,213.5
2021-04-14T00:40:03,42.805,6.029,-0.051,-0.045,-0.018,103.0,104.0,101.0,13.4,1505.2,327.1,-0.7,1.8,2469.141,13.28,0.068,228.6
2021-04-14T00:43:03,42.805,6.029,-0.031,-0.029,-0.003,104.0,104.0,101.0,13.3,1505.2,325.5,-0.8,1.8,2469.184,13.28,0.042,226.9
2021-04-14T00:46:03,42.805,6.029,-0.023,-0.03,0.017,104.0,104.0,103.0,13.3,1505.2,323.7,-0.8,1.8,2469.125,13.28,0.037,217.5
2021-04-14T00:49:03,42.805,6.029,-0.038,-0.037,-0.016,104.0,104.0,101.0,13.3,1505.2,328.6,-0.8,1.8,2469.182,13.28,0.053,225.8
2021-04-14T00:52:03,42.805,6.029,-0.019,-0.029,-0.033,102.0,103.0,102.0,13.4,1505.2,327.6,-0.7,1.8,2469.158,13.28,0.034,213.2
2021-04-14T00:55:03,42.805,6.029,-0.049,-0.031,0.002,104.0,103.0,101.0,13.4,1505.2,324.8,-0.8,1.8,2469.162,13.28,0.057,237.7
2021-04-14T00:58:03,42.805,6.029,-0.046,-0.042,-0.019,102.0,103.0,102.0,13.3,1505.2,327.1,-0.7,1.8,2469.138,13.28,0.062,227.6
2021-04-14T01:04:03,42.805,6.029,-0.036,-0.047,-0.009,103.0,103.0,101.0,13.4,1505.2,325.3,-0.7,1.8,2469.205,13.28,0.059,217.5
2021-04-14T01:07:03,42.805,6.029,-0.072,-0.009,-0.017,103.0,103.0,102.0,13.4,1505.2,328.7,-0.8,1.9,2469.143,13.28,0.072,262.9
2021-04-14T01:10:03,42.805,6.029,-0.042,-0.036,-0.018,104.0,102.0,102.0,13.4,1505.2,325.1,-0.8,1.8,2469.147,13.28,0.055,229.4
2021-04-14T01:13:03,42.805,6.029,-0.054,-0.05,-0.036,104.0,104.0,101.0,13.4,1505.2,325.5,-0.8,1.8,2469.143,13.28,0.073,227.2
2021-04-14T01:16:03,42.805,6.029,-0.039,-0.042,-0.029,104.0,104.0,102.0,13.4,1505.2,326.7,-0.7,1.8,2469.135,13.28,0.057,222.9
2021-04-14T01:19:03,42.805,6.029,-0.045,-0.045,-0.029,105.0,103.0,101.0,13.4,1505.2,323.8,-0.7,1.8,2469.135,13.28,0.063,225.0
2021-04-14T01:22:03,42.805,6.029,-0.036,-0.046,-0.033,103.0,103.0,102.0,13.3,1505.2,327.1,-0.7,1.8,2469.149,13.28,0.058,218.0
2021-04-14T01:25:03,42.805,6.029,-0.048,-0.03,0.011,104.0,104.0,101.0,13.4,1505.2,328.1,-0.7,1.8,2469.169,13.28,0.056,238.0
2021-04-14T01:28:03,42.805,6.029,-0.05,-0.035,-0.008,104.0,104.0,101.0,13.3,1505.2,325.1,-0.8,1.8,2469.142,13.28,0.061,235.0
2021-04-14T01:31:03,42.805,6.029,-0.04,-0.028,-0.035,104.0,104.0,101.0,13.4,1505.2,327.1,-0.7,1.8,2469.147,13.28,0.048,235.0
2021-04-14T01:34:03,42.805,6.029,-0.036,-0.056,-0.012,106.0,104.0,101.0,13.4,1505.2,325.9,-0.8,1.8,2469.147,13.28,0.066,212.7
2021-04-14T01:37:03,42.805,6.029,-0.042,-0.035,-0.023,104.0,103.0,101.0,13.3,1505.2,323.6,-0.8,1.8,2469.164,13.28,0.054,230.2
2021-04-14T01:40:03,42.805,6.029,-0.026,-0.042,0.0,104.0,104.0,102.0,13.3,1505.2,328.8,-0.7,1.8,2469.195,13.28,0.049,211.8
2021-04-14T01:43:03,42.805,6.029,-0.04,-0.031,-0.017,103.0,104.0,101.0,13.4,1505.2,325.7,-0.7,1.9,2469.171,13.28,0.05,232.2
2021-04-14T01:46:03,42.805,6.029,-0.046,-0.054,-0.014,104.0,103.0,102.0,13.4,1505.2,325.7,-0.7,1.8,2469.177,13.28,0.07,220.4
2021-04-14T01:49:03,42.805,6.029,-0.031,-0.031,-0.008,104.0,103.0,101.0,13.4,1505.2,326.9,-0.8,1.8,2469.169,13.28,0.043,225.0
2021-04-14T01:52:03,42.805,6.029,-0.049,-0.05,-0.013,104.0,104.0,101.0,13.4,1505.2,325.4,-0.8,1.8,2469.177,13.28,0.07,224.4
2021-04-14T01:55:03,42.805,6.029,-0.05,-0.023,-0.014,102.0,103.0,102.0,13.4,1505.2,323.7,-0.8,1.8,2469.21,13.28,0.055,245.3
2021-04-14T01:58:03,42.805,6.029,-0.03,-0.058,-0.023,105.0,102.0,100.0,13.4,1505.2,328.3,-0.8,1.8,2469.197,13.28,0.065,207.4
2021-04-14T02:04:03,42.805,6.029,-0.035,-0.04,-0.007,104.0,105.0,101.0,13.4,1505.2,327.2,-0.8,1.8,2469.237,13.28,0.053,221.2
2021-04-14T02:07:03,42.805,6.029,-0.038,-0.033,-0.024,104.0,104.0,102.0,13.4,1505.2,328.1,-0.8,1.8,2469.182,13.28,0.05,229.0
2021-04-14T02:10:03,42.805,6.029,-0.042,-0.037,-0.023,104.0,103.0,102.0,13.4,1505.2,328.2,-0.7,1.8,2469.167,13.28,0.055,228.6
2021-04-14T02:13:03,42.805,6.029,-0.052,-0.054,-0.038,105.0,104.0,102.0,13.3,1505.2,324.8,-0.8,1.8,2469.167,13.28,0.074,223.9
2021-04-14T02:16:03,42.805,6.029,-0.046,-0.045,-0.035,103.0,104.0,102.0,13.4,1505.2,326.4,-0.7,1.8,2469.157,13.28,0.064,225.6
2021-04-14T02:19:03,42.805,6.029,-0.051,-0.033,-0.037,103.0,105.0,101.0,13.3,1505.2,325.7,-0.8,1.9,2469.21,13.28,0.06,237.1
2021-04-14T02:22:03,42.805,6.029,-0.073,-0.052,-0.009,104.0,103.0,102.0,13.3,1505.2,325.4,-0.7,1.8,2469.197,13.28,0.089,234.5
2021-04-14T02:25:03,42.805,6.029,-0.045,-0.044,-0.028,104.0,102.0,101.0,13.4,1505.2,324.0,-0.8,1.9,2469.168,13.28,0.062,225.6
2021-04-14T02:28:03,42.805,6.029,-0.025,-0.036,0.005,103.0,105.0,103.0,13.4,1505.2,327.1,-0.7,1.8,2469.236,13.28,0.043,214.8
2021-04-14T02:31:03,42.805,6.029,-0.051,-0.048,-0.016,105.0,103.0,102.0,13.4,1505.2,327.5,-0.7,1.8,2469.184,13.28,0.07,226.7
2021-04-14T02:34:03,42.805,6.029,-0.043,-0.051,0.001,104.0,103.0,101.0,13.4,1505.2,324.2,-0.8,1.8,2469.229,13.28,0.066,220.1
2021-04-14T02:37:03,42.805,6.029,-0.052,-0.023,0.015,103.0,104.0,102.0,13.3,1505.2,328.4,-0.8,1.8,2469.215,13.28,0.056,246.1
2021-04-14T02:40:03,42.805,6.029,-0.036,-0.044,0.007,104.0,103.0,100.0,13.3,1505.2,325.5,-0.8,1.8,2469.198,13.28,0.056,219.3
2021-04-14T02:43:03,42.805,6.029,-0.039,-0.032,-0.01,104.0,104.0,101.0,13.4,1505.2,324.9,-0.7,1.8,2469.248,13.28,0.05,230.6
2021-04-14T02:46:03,42.805,6.029,-0.056,-0.054,-0.014,104.0,103.0,102.0,13.3,1505.2,324.8,-0.8,1.8,2469.217,13.28,0.077,226.0
2021-04-14T02:49:03,42.805,6.029,-0.052,-0.047,-0.017,104.0,105.0,101.0,13.4,1505.2,325.0,-0.8,1.8,2469.222,13.28,0.07,227.9
2021-04-14T02:52:03,42.805,6.029,-0.056,-0.02,0.005,103.0,103.0,101.0,13.4,1505.2,326.8,-0.8,1.8,2469.192,13.28,0.059,250.4
2021-04-14T02:55:03,42.805,6.029,-0.033,-0.029,-0.022,103.0,104.0,101.0,13.3,1505.2,327.2,-0.7,1.9,2469.23,13.28,0.043,228.7
2021-04-14T02:58:03,42.805,6.029,-0.047,-0.035,0.008,105.0,104.0,101.0,13.4,1505.2,326.7,-0.8,1.8,2469.241,13.28,0.058,233.3
2021-04-14T03:04:03,42.805,6.029,-0.047,-0.045,-0.025,104.0,103.0,100.0,13.4,1505.2,327.8,-0.7,1.9,2469.23,13.28,0.065,226.2
2021-04-14T03:07:03,42.805,6.029,-0.042,-0.038,-0.012,103.0,103.0,101.0,13.4,1505.2,323.6,-0.8,1.8,2469.283,13.28,0.056,227.9
2021-04-14T03:10:03,42.805,6.029,-0.051,-0.053,-0.03,102.0,104.0,101.0,13.4,1505.2,328.0,-0.8,1.8,2469.244,13.28,0.073,223.9
2021-04-14T03:13:03,42.805,6.029,-0.046,-0.044,-0.012,104.0,103.0,102.0,13.3,1505.2,325.3,-0.8,1.8,2469.241,13.28,0.063,226.3
2021-04-14T03:16:03,42.805,6.029,-0.045,-0.027,-0.036,104.0,102.0,103.0,13.4,1505.2,327.0,-0.8,1.8,2469.194,13.28,0.052,239.0
2021-04-14T03:19:03,42.805,6.029,-0.025,-0.041,0.006,103.0,104.0,102.0,13.4,1505.2,327.0,-0.7,1.8,2469.242,13.28,0.048,211.4
2021-04-14T03:22:03,42.805,6.029,-0.047,-0.041,-0.014,105.0,102.0,100.0,13.4,1505.2,325.5,-0.7,1.8,2469.203,13.28,0.062,228.9
2021-04-14T03:25:03,42.805,6.029,-0.033,-0.033,0.01,103.0,104.0,101.0,13.4,1505.2,323.8,-0.7,1.8,2469.272,13.28,0.046,225.0
2021-04-14T03:28:03,42.805,6.029,-0.045,-0.037,-0.009,105.0,104.0,101.0,13.3,1505.2,327.4,-0.8,1.9,2469.259,13.28,0.058,230.6
2021-04-14T03:31:03,42.805,6.029,-0.038,-0.032,-0.009,105.0,104.0,100.0,13.4,1505.2,328.7,-0.7,1.8,2469.213,13.28,0.049,229.9
2021-04-14T03:34:03,42.805,6.029,-0.044,-0.03,-0.003,103.0,104.0,102.0,13.3,1505.2,327.1,-0.8,1.8,2469.263,13.28,0.053,235.7
2021-04-14T03:37:03,42.805,6.029,-0.036,-0.045,-0.009,104.0,103.0,102.0,13.4,1505.2,328.6,-0.7,1.8,2469.272,13.28,0.057,218.7
2021-04-14T03:40:03,42.805,6.029,-0.032,-0.042,-0.024,106.0,104.0,102.0,13.4,1505.2,325.3,-0.8,1.8,2469.246,13.28,0.052,217.3
2021-04-14T03:43:03,42.805,6.029,-0.047,-0.058,-0.033,104.0,103.0,102.0,13.4,1505.2,327.2,-0.7,1.8,2469.264,13.28,0.074,219.0
2021-04-14T03:46:03,42.805,6.029,-0.039,-0.053,0.032,104.0,103.0,102.0,13.3,1505.2,326.4,-0.7,1.8,2469.282,13.28,0.065,216.3
2021-04-14T03:49:03,42.805,6.029,-0.05,-0.056,-0.021,104.0,104.0,102.0,13.3,1505.2,327.4,-0.7,1.8,2469.289,13.28,0.075,221.8
2021-04-14T03:52:03,42.805,6.029,-0.035,-0.047,-0.012,104.0,103.0,101.0,13.4,1505.2,326.8,-0.7,1.8,2469.287,13.28,0.058,216.7
2021-04-14T03:55:03,42.805,6.029,-0.019,-0.066,0.002,103.0,104.0,101.0,13.4,1505.2,328.5,-0.8,1.8,2469.286,13.28,0.068,196.1
2021-04-14T03:58:03,42.805,6.029,-0.072,-0.016,-0.023,104.0,103.0,102.0,13.4,1505.2,327.2,-0.7,1.8,2469.28,13.28,0.073,257.5
2021-04-14T04:04:03,42.805,6.029,-0.044,-0.047,-0.016,105.0,106.0,102.0,13.4,1505.2,327.3,-0.8,1.8,2469.305,13.28,0.064,223.1
2021-04-14T04:07:03,42.805,6.029,-0.044,-0.04,-0.032,105.0,104.0,101.0,13.4,1505.2,323.1,-0.7,1.8,2469.316,13.28,0.059,227.7
2021-04-14T04:10:03,42.805,6.029,-0.055,-0.048,-0.029,104.0,103.0,102.0,13.4,1505.2,325.7,-0.7,1.8,2469.265,13.28,0.072,228.9
2021-04-14T04:13:03,42.805,6.029,-0.031,-0.046,-0.016,104.0,103.0,103.0,13.4,1505.2,327.1,-0.8,1.8,2469.304,13.28,0.055,214.0
2021-04-14T04:16:03,42.805,6.029,-0.039,-0.037,-0.017,105.0,103.0,102.0,13.3,1505.2,326.7,-0.7,1.8,2469.297,13.28,0.053,226.5
2021-04-14T04:19:03,42.805,6.029,-0.044,-0.042,-0.046,105.0,104.0,102.0,13.3,1505.2,326.7,-0.8,1.8,2469.321,13.28,0.06,226.3
2021-04-14T04:22:03,42.805,6.029,-0.027,-0.034,0.013,105.0,103.0,103.0,13.4,1505.2,328.0,-0.8,1.9,2469.303,13.28,0.043,218.5
2021-04-14T04:25:03,42.805,6.029,-0.055,-0.035,-0.03,104.0,104.0,102.0,13.4,1505.2,325.9,-0.8,1.8,2469.278,13.28,0.065,237.5
2021-04-14T04:28:03,42.805,6.029,-0.047,-0.058,-0.004,105.0,104.0,102.0,13.4,1505.2,325.2,-0.7,1.8,2469.333,13.28,0.074,219.0
2021-04-14T04:31:03,42.805,6.029,-0.041,-0.018,-0.019,103.0,104.0,103.0,13.3,1505.2,327.9,-0.7,1.8,2469.324,13.28,0.044,246.3
2021-04-14T04:34:03,42.805,6.029,-0.023,-0.049,-0.033,104.0,106.0,101.0,13.3,1505.2,323.6,-0.8,1.8,2469.352,13.28,0.054,205.1
2021-04-14T04:37:03,42.805,6.029,-0.037,-0.048,-0.029,104.0,104.0,102.0,13.4,1505.2,328.5,-0.7,1.8,2469.311,13.28,0.06,217.6
2021-04-14T04:40:03,42.805,6.029,-0.053,-0.05,-0.019,104.0,103.0,102.0,13.4,1505.2,325.2,-0.7,1.8,2469.336,13.28,0.072,226.7
2021-04-14T04:43:03,42.805,6.029,-0.045,-0.046,-0.031,104.0,104.0,101.0,13.3,1505.2,327.3,-0.7,1.8,2469.361,13.28,0.064,224.4
2021-04-14T04:46:03,42.805,6.029,-0.047,-0.035,0.0,104.0,103.0,102.0,13.4,1505.2,323.9,-0.7,1.9,2469.322,13.28,0.058,233.3
2021-04-14T04:49:03,42.805,6.029,-0.042,-0.04,-0.029,104.0,104.0,102.0,13.4,1505.2,326.2,-0.8,1.8,2469.337,13.28,0.057,226.4
2021-04-14T04:52:03,42.805,6.029,-0.047,-0.063,0.001,105.0,105.0,102.0,13.3,1505.2,328.3,-0.8,1.9,2469.349,13.28,0.078,216.7
2021-04-14T04:55:03,42.805,6.029,-0.043,-0.037,-0.016,104.0,104.0,102.0,13.4,1505.2,325.9,-0.8,1.8,2469.344,13.28,0.056,229.3
2021-04-14T04:58:03,42.805,6.029,-0.037,-0.056,0.01,106.0,104.0,103.0,13.3,1505.2,327.0,-0.8,1.8,2469.37,13.28,0.067,213.5
2021-04-14T05:04:03,42.805,6.029,-0.033,-0.045,-0.015,105.0,104.0,102.0,13.3,1505.2,328.5,-0.7,1.8,2469.381,13.28,0.055,216.3
2021-04-14T05:07:03,42.805,6.029,-0.039,-0.052,-0.024,104.0,104.0,102.0,13.4,1505.2,327.6,-0.8,1.8,2469.382,13.28,0.064,216.9
2021-04-14T05:10:03,42.805,6.029,-0.04,-0.054,-0.003,104.0,105.0,102.0,13.3,1505.2,325.1,-0.8,1.8,2469.372,13.28,0.067,216.5
2021-04-14T05:13:03,42.805,6.029,-0.053,-0.04,-0.027,104.0,104.0,101.0,13.4,1505.2,326.1,-0.7,1.8,2469.403,13.28,0.066,233.0
2021-04-14T05:16:03,42.805,6.029,-0.045,-0.058,-0.05,105.0,104.0,102.0,13.3,1505.2,326.0,-0.7,1.8,2469.4,13.28,0.073,217.8
2021-04-14T05:19:03,42.805,6.029,-0.027,-0.021,0.021,104.0,105.0,102.0,13.4,1505.2,329.3,-0.7,1.8,2469.39,13.28,0.034,232.1
2021-04-14T05:22:03,42.805,6.029,-0.025,-0.043,0.004,107.0,103.0,102.0,13.3,1505.2,325.5,-0.7,1.8,2469.436,13.28,0.049,210.2
2021-04-14T05:25:03,42.805,6.029,-0.037,-0.048,-0.02,105.0,104.0,102.0,13.3,1505.2,326.6,-0.8,1.8,2469.402,13.28,0.06,217.6
2021-04-14T05:28:03,42.805,6.029,-0.03,-0.047,-0.016,104.0,105.0,102.0,13.3,1505.2,324.9,-0.8,1.8,2469.394,13.28,0.055,212.6
2021-04-14T05:31:03,42.805,6.029,-0.052,-0.047,-0.037,105.0,105.0,103.0,13.3,1505.2,328.8,-0.7,1.8,2469.451,13.28,0.07,227.9
2021-04-14T05:34:03,42.805,6.029,-0.042,-0.063,-0.045,104.0,104.0,103.0,13.4,1505.2,327.3,-0.8,1.8,2469.415,13.28,0.075,213.7
2021-04-14T05:37:03,42.805,6.029,-0.043,-0.059,-0.032,106.0,104.0,102.0,13.3,1505.2,326.7,-0.8,1.8,2469.376,13.28,0.073,216.1
2021-04-14T05:40:03,42.805,6.029,-0.032,-0.033,-0.016,104.0,103.0,103.0,13.4,1505.2,326.3,-0.7,1.8,2469.43,13.28,0.045,224.1
2021-04-14T05:43:03,42.805,6.029,-0.061,-0.045,-0.02,105.0,102.0,102.0,13.4,1505.2,327.4,-0.7,1.8,2469.425,13.28,0.075,233.6
2021-04-14T05:46:03,42.805,6.029,-0.046,-0.045,-0.006,105.0,104.0,104.0,13.4,1505.2,326.3,-0.7,1.8,2469.412,13.28,0.064,225.6
2021-04-14T05:49:03,42.805,6.029,-0.041,-0.034,-0.006,104.0,104.0,103.0,13.4,1505.2,326.0,-0.8,1.8,2469.413,13.28,0.053,230.3
2021-04-14T05:52:03,42.805,6.029,-0.039,-0.053,-0.027,105.0,104.0,102.0,13.3,1505.2,324.5,-0.7,1.8,2469.463,13.28,0.065,216.3
2021-04-14T05:55:03,42.805,6.029,-0.031,-0.044,-0.017,103.0,104.0,102.0,13.3,1505.2,327.2,-0.8,1.8,2469.443,13.28,0.053,215.2
2021-04-14T05:58:03,42.805,6.029,-0.035,-0.053,-0.006,103.0,104.0,102.0,13.3,1505.2,328.5,-0.7,1.9,2469.494,13.28,0.063,213.4
2021-04-14T06:04:03,42.805,6.029,-0.039,-0.051,-0.024,106.0,105.0,102.0,13.4,1505.2,326.0,-0.8,1.8,2469.505,13.28,0.064,217.4
2021-04-14T06:07:03,42.805,6.029,-0.02,-0.057,-0.026,104.0,104.0,102.0,13.4,1505.2,325.3,-0.8,1.8,2469.485,13.28,0.06,199.3
2021-04-14T06:10:03,42.805,6.029,-0.043,-0.059,-0.003,105.0,104.0,102.0,13.3,1505.2,325.4,-0.7,1.8,2469.485,13.28,0.073,216.1
2021-04-14T06:13:03,42.805,6.029,-0.043,-0.041,-0.028,106.0,104.0,103.0,13.3,1505.2,326.7,-0.8,1.8,2469.514,13.28,0.059,226.4
2021-04-14T06:16:03,42.805,6.029,-0.047,-0.062,-0.01,105.0,105.0,103.0,13.4,1505.2,323.6,-0.8,1.8,2469.464,13.28,0.077,217.2
2021-04-14T06:19:03,42.805,6.029,-0.032,-0.05,-0.016,104.0,105.0,102.0,13.3,1505.2,324.1,-0.7,1.8,2469.502,13.28,0.059,212.6
2021-04-14T06:22:03,42.805,6.029,-0.057,-0.024,-0.011,104.0,104.0,102.0,13.4,1505.2,328.2,-0.8,1.8,2469.513,13.28,0.061,247.2
2021-04-14T06:25:03,42.805,6.029,-0.046,-0.046,-0.036,106.0,104.0,102.0,13.3,1505.2,327.1,-0.8,1.8,2469.496,13.28,0.065,225.0
2021-04-14T06:28:03,42.805,6.029,-0.038,-0.063,-0.04,105.0,104.0,101.0,13.4,1505.2,328.6,-0.7,1.8,2469.506,13.28,0.073,211.1
2021-04-14T06:31:03,42.805,6.029,-0.039,-0.043,-0.043,105.0,104.0,101.0,13.4,1505.2,328.5,-0.7,1.8,2469.538,13.28,0.058,222.2
2021-04-14T06:34:03,42.805,6.029,-0.026,-0.035,0.025,106.0,104.0,102.0,13.3,1505.2,327.5,-0.7,1.8,2469.506,13.28,0.043,216.6
2021-04-14T06:37:03,42.805,6.029,-0.05,-0.04,-0.017,105.0,103.0,102.0,13.4,1505.2,326.2,-0.8,1.8,2469.506,13.28,0.064,231.3
2021-04-14T06:40:03,42.805,6.029,-0.038,-0.048,-0.023,104.0,104.0,102.0,13.4,1505.2,327.3,-0.7,1.8,2469.488,13.28,0.061,218.4
2021-04-14T06:43:03,42.805,6.029,-0.031,-0.063,-0.025,104.0,105.0,102.0,13.4,1505.2,328.6,-0.7,1.9,2469.516,13.28,0.07,206.2
2021-04-14T06:46:03,42.805,6.029,-0.042,-0.036,-0.014,104.0,106.0,102.0,13.4,1505.2,327.1,-0.7,1.9,2469.55,13.28,0.055,229.4
2021-04-14T06:49:03,42.805,6.029,-0.047,-0.047,-0.02,105.0,105.0,103.0,13.4,1505.2,325.5,-0.7,1.8,2469.536,13.28,0.066,225.0
2021-04-14T06:52:03,42.805,6.029,-0.067,-0.057,-0.043,104.0,104.0,103.0,13.4,1505.2,327.6,-0.8,1.8,2469.543,13.28,0.087,229.6
2021-04-14T06:55:03,42.805,6.029,-0.036,-0.056,-0.03,105.0,104.0,102.0,13.4,1505.2,327.1,-0.8,1.9,2469.526,13.28,0.066,212.7
2021-04-14T06:58:03,42.805,6.029,-0.025,-0.042,0.006,105.0,104.0,102.0,13.4,1505.2,324.9,-0.8,1.8,2469.532,13.28,0.048,210.8
2021-04-14T07:04:03,42.805,6.029,-0.053,-0.033,-0.019,105.0,103.0,102.0,13.3,1505.2,325.4,-0.8,1.8,2469.564,13.28,0.062,238.1
2021-04-14T07:07:03,42.805,6.029,-0.042,-0.045,-0.004,104.0,104.0,102.0,13.4,1505.2,324.5,-0.8,1.8,2469.551,13.28,0.061,223.0
2021-04-14T07:10:03,42.805,6.029,-0.031,-0.049,-0.021,105.0,103.0,103.0,13.4,1505.2,327.5,-0.7,1.8,2469.548,13.28,0.057,212.3
2021-04-14T07:13:03,42.805,6.029,-0.036,-0.046,-0.01,105.0,105.0,102.0,13.4,1505.2,325.0,-0.7,1.8,2469.55,13.28,0.058,218.0
2021-04-14T07:16:03,42.805,6.029,-0.026,-0.06,0.002,104.0,104.0,102.0,13.3,1505.2,325.3,-0.8,1.8,2469.578,13.28,0.065,203.4
2021-04-14T07:19:03,42.805,6.029,-0.044,-0.038,0.0,105.0,104.0,102.0,13.3,1505.2,326.6,-0.7,1.8,2469.536,13.28,0.058,229.2
2021-04-14T07:22:03,42.805,6.029,-0.045,-0.041,-0.006,103.0,105.0,103.0,13.4,1505.2,327.9,-0.8,1.9,2469.539,13.28,0.06,227.7
2021-04-14T07:25:03,42.805,6.029,-0.038,-0.051,-0.027,105.0,104.0,102.0,13.4,1505.2,324.4,-0.7,1.8,2469.542,13.28,0.063,216.7
2021-04-14T07:28:03,42.805,6.029,-0.058,-0.025,-0.019,105.0,104.0,102.0,13.4,1505.2,326.6,-0.7,1.8,2469.552,13.28,0.063,246.7
2021-04-14T07:31:03,42.805,6.029,-0.036,-0.045,-0.033,105.0,104.0,103.0,13.4,1505.2,327.6,-0.8,1.9,2469.543,13.28,0.057,218.7
2021-04-14T07:34:03,42.805,6.029,-0.049,-0.04,-0.016,106.0,104.0,102.0,13.4,1505.2,326.4,-0.7,1.8,2469.52,13.28,0.063,230.8
2021-04-14T07:37:03,42.805,6.029,-0.051,-0.051,-0.02,105.0,105.0,102.0,13.4,1505.2,326.0,-0.8,1.8,2469.524,13.28,0.072,225.0
2021-04-14T07:40:03,42.805,6.029,-0.028,-0.038,0.007,105.0,104.0,102.0,13.4,1505.2,327.1,-0.7,1.8,2469.578,13.28,0.047,216.4
2021-04-14T07:43:03,42.805,6.029,-0.049,-0.035,-0.005,105.0,104.0,102.0,13.4,1505.2,326.6,-0.7,1.8,2469.553,13.28,0.06,234.5
2021-04-14T07:46:03,42.805,6.029,-0.051,-0.047,-0.015,105.0,105.0,102.0,13.4,1505.2,326.1,-0.8,1.9,2469.507,13.28,0.069,227.3
2021-04-14T07:49:03,42.805,6.029,-0.041,-0.021,-0.013,105.0,104.0,101.0,13.4,1505.2,325.4,-0.7,1.8,2469.549,13.28,0.046,242.9
2021-04-14T07:52:03,42.805,6.029,-0.076,-0.039,0.019,105.0,104.0,102.0,13.4,1505.2,326.4,-0.7,1.8,2469.514,13.28,0.085,242.8
2021-04-14T07:55:03,42.805,6.029,-0.051,-0.073,-0.026,104.0,104.0,102.0,13.3,1505.2,323.4,-0.8,1.8,2469.561,13.28,0.089,214.9
2021-04-14T07:58:03,42.805,6.029,-0.042,-0.055,-0.026,104.0,104.0,102.0,13.4,1505.2,324.8,-0.8,1.8,2469.472,13.28,0.069,217.4
2021-04-14T08:04:03,42.805,6.029,-0.037,-0.044,0.008,105.0,104.0,103.0,13.4,1505.2,325.3,-0.7,1.8,2469.537,13.28,0.057,220.1
2021-04-14T08:07:03,42.805,6.029,-0.06,-0.054,-0.013,106.0,105.0,102.0,13.4,1505.2,327.0,-0.8,1.8,2469.543,13.28,0.08,228.0
2021-04-14T08:10:03,42.805,6.029,-0.042,-0.056,-0.023,104.0,105.0,102.0,13.4,1505.2,327.5,-0.7,1.8,2469.549,13.28,0.069,216.9
2021-04-14T08:13:03,42.805,6.029,-0.052,-0.064,-0.042,106.0,104.0,102.0,13.4,1505.2,327.3,-0.7,1.8,2469.549,13.28,0.082,219.1
2021-04-14T08:16:03,42.805,6.029,-0.046,-0.048,-0.026,106.0,106.0,103.0,13.4,1505.2,324.2,-0.8,1.8,2469.491,13.28,0.066,223.8
2021-04-14T08:19:03,42.805,6.029,-0.037,-0.052,-0.009,105.0,105.0,102.0,13.3,1505.2,327.7,-0.8,1.8,2469.49,13.28,0.063,215.4
2021-04-14T08:22:03,42.805,6.029,-0.05,-0.026,0.0,105.0,106.0,103.0,13.4,1505.2,325.4,-0.8,1.9,2469.507,13.28,0.056,242.5
2021-04-14T08:25:03,42.805,6.029,-0.04,-0.04,-0.006,106.0,105.0,103.0,13.4,1505.2,328.3,-0.7,1.8,2469.53,13.28,0.056,225.0
2021-04-14T08:28:03,42.805,6.029,-0.038,-0.054,-0.021,105.0,105.0,103.0,13.3,1505.2,324.6,-0.8,1.8,2469.542,13.28,0.066,215.1
2021-04-14T08:31:03,42.805,6.029,-0.032,-0.053,-0.005,106.0,104.0,103.0,13.4,1505.2,323.9,-0.8,1.8,2469.535,13.28,0.061,211.1
2021-04-14T08:34:03,42.805,6.029,-0.049,-0.052,-0.008,105.0,104.0,102.0,13.4,1505.2,325.6,-0.8,1.9,2469.475,13.28,0.071,223.3
2021-04-14T08:37:03,42.805,6.029,-0.05,-0.054,-0.032,105.0,106.0,102.0,13.4,1505.2,327.1,-0.8,1.8,2469.544,13.28,0.073,222.8
2021-04-14T08:40:03,42.805,6.029,-0.047,-0.056,0.0,106.0,104.0,103.0,13.3,1505.2,325.2,-0.7,1.9,2469.501,13.28,0.073,220.0
2021-04-14T08:43:03,42.805,6.029,-0.028,-0.035,-0.046,106.0,107.0,102.0,13.4,1505.2,327.7,-0.7,1.8,2469.534,13.28,0.044,218.7
2021-04-14T08:46:03,42.805,6.029,-0.054,-0.048,0.02,106.0,105.0,103.0,13.4,1505.2,327.3,-0.7,1.8,2469.513,13.28,0.072,228.4
2021-04-14T08:49:03,42.805,6.029,-0.048,-0.058,-0.024,105.0,105.0,102.0,13.3,1505.2,325.9,-0.7,1.8,2469.515,13.28,0.075,219.6
2021-04-14T08:52:03,42.805,6.029,-0.04,-0.032,-0.023,106.0,106.0,103.0,13.4,1505.2,325.8,-0.7,1.8,2469.474,13.28,0.051,231.3
2021-04-14T08:55:03,42.805,6.029,-0.042,-0.061,-0.026,106.0,105.0,103.0,13.4,1505.2,328.2,-0.7,1.8,2469.515,13.28,0.074,214.6
2021-04-14T08:58:03,42.805,6.029,-0.039,-0.066,-0.009,106.0,105.0,103.0,13.4,1505.2,326.7,-0.8,1.8,2469.473,13.28,0.076,210.6
2021-04-14T09:04:03,42.805,6.029,-0.027,-0.041,0.007,106.0,105.0,103.0,13.4,1505.2,327.3,-0.7,1.8,2469.51,13.28,0.049,213.4
2021-04-14T09:07:03,42.805,6.029,-0.043,-0.042,-0.007,105.0,105.0,103.0,13.3,1505.2,328.7,-0.8,1.9,2469.487,13.28,0.06,225.7
2021-04-14T09:10:03,42.805,6.029,-0.023,-0.058,-0.031,107.0,106.0,103.0,13.4,1505.2,326.3,-0.8,1.8,2469.515,13.28,0.062,201.6
2021-04-14T09:13:03,42.805,6.029,-0.029,-0.035,0.028,107.0,106.0,102.0,13.3,1505.2,324.9,-0.7,1.8,2469.482,13.28,0.045,219.6
2021-04-14T09:16:03,42.805,6.029,-0.025,-0.055,-0.019,105.0,105.0,104.0,13.3,1505.2,325.0,-0.8,1.8,2469.488,13.28,0.06,204.4
2021-04-14T09:19:03,42.805,6.029,-0.032,-0.038,-0.028,106.0,106.0,103.0,13.4,1505.2,326.5,-0.7,1.8,2469.47,13.28,0.049,220.1
2021-04-14T09:22:03,42.805,6.029,-0.034,-0.049,-0.006,105.0,105.0,103.0,13.3,1505.2,323.6,-0.8,1.8,2469.471,13.28,0.059,214.8
2021-04-14T09:25:03,42.805,6.029,-0.033,-0.05,0.0,107.0,105.0,103.0,13.3,1505.2,324.8,-0.8,1.8,2469.477,13.28,0.059,213.4
2021-04-14T09:28:03,42.805,6.029,-0.044,-0.048,-0.024,106.0,105.0,102.0,13.3,1505.2,328.3,-0.8,1.8,2469.441,13.28,0.065,222.5
2021-04-14T09:31:03,42.805,6.029,-0.045,-0.037,-0.008,106.0,106.0,103.0,13.4,1505.2,324.4,-0.8,1.8,2469.503,13.28,0.058,230.6
2021-04-14T09:34:03,42.805,6.029,-0.041,-0.046,-0.026,108.0,105.0,102.0,13.4,1505.2,327.3,-0.8,1.8,2469.459,13.28,0.061,221.7
2021-04-14T09:37:03,42.805,6.029,-0.028,-0.061,0.006,106.0,104.0,104.0,13.4,1505.2,326.9,-0.8,1.8,2469.436,13.28,0.067,204.7
2021-04-14T09:40:03,42.805,6.029,-0.026,-0.041,0.019,106.0,104.0,103.0,13.4,1505.2,325.7,-0.8,1.8,2469.439,13.28,0.048,212.4
2021-04-14T09:43:03,42.805,6.029,-0.053,-0.038,0.006,105.0,105.0,103.0,13.4,1505.2,323.7,-0.8,1.8,2469.421,13.28,0.065,234.4
2021-04-14T09:46:03,42.805,6.029,-0.025,-0.027,-0.016,107.0,105.0,103.0,13.4,1505.2,326.0,-0.7,1.8,2469.463,13.28,0.036,222.8
2021-04-14T09:49:03,42.805,6.029,-0.027,-0.047,-0.025,107.0,105.0,103.0,13.4,1505.2,326.0,-0.8,1.8,2469.458,13.28,0.054,209.9